INMARSAT 5-F3

Last updated on Thu Sep 10 2026 00:02:58 GMT+0000 (Coordinated Universal Time)

1 40882U 15042A 26252.58316429 .00000029 00000+0 00000+0 0 9998 2 40882 0.0202 134.9872 0001044 231.1377 11.9838 1.00271627 40410
UTC large
Height (km)
Speed (km/s)
/
Latitude / Longitude
Inclination (degrees)
Orbital Period (minutes)
Azimuth
Elevation
Range (km)
Doppler Factor

Next 0 passes for location: London (51.5072 / 0.1276)

No passes found over London.
INMARSAT 5-F3